ARIANE 2 DEB, 33574

Orbit data source: Space-Track

ARIANE 2 DEB, 33574 is space debris in HEO originally from a launch on Fri, 27 Jan 1989 UTC launched from the French Guiana (FRGUI). Debris objects in space refer to the collection of defunct objects orbiting the Earth. Examples of debris include non-operational satellites, rocket bodies, and fragments generated from explosions, collisions, or faulty payload assembly.

Loading next visibility...
Identifier
33574, 1989-006BS
Orbit
HEO
Country
Flag of FRFR
Related business
Manufacturer
EADS/LV
Mission
Spacecraft
Bus & Motor
Unknown
Mass
Unknown
Launch date (UTC)
1989-01-27 (37 years ago)
Launch vehicle
Unknown
Launch site
French Guiana (FRGUI)
Object type
Payload
Rocket body
Debris
Shape & HBR
Unknown shape, 0.3 m
Radar Cross Section
Medium (>0.1 m² and <1 m²)

Expand to show TLE details & history
Last TLE update: 17 hours ago

TLE from 17 hours ago
0 ARIANE 2 DEB
1 33574U 89006BS  26104.18135095  .00000273  00000-0  35417-2 0  9994
2 33574   7.7705 171.2112 7143002 250.0153  28.2308  2.29405295168116
Epoch: 2026-04-14T04:21Z
TLE epoch observation values (Epoch: 2026-04-14T04:21:08.722Z)
Latitude
0.67486°
Longitude
-91.17254°
Altitude
10,762.349 km
Speed
5.486 km/s
True Right ascension
11h 45m 54s
True Declination
0° 40' 23"
Sunlit
Object was in daylight at epoch
Visualization orbit readout
Latitude
Unknown
Longitude
Unknown
Altitude
Unknown
Speed
Unknown
Apparent Right ascension
Unknown
Apparent Declination
Unknown
Sunlit
N/A
Visualization observer readout
Local Sidereal Time
04:20:06
Azimuth
Unknown
Elevation
Unknown
Doppler factor
Unknown
Orbital elements
Apogee altitude
35,261.991 km
Perigee altitude
561.474 km
Semi-major axis
24,289.869 km
Eccentricity
0.7143
Inclination
7.7705°
RAAN
171.2112°
Arg. of periapsis
250.0153°
True anomaly
115.15624°
Mean anomaly
28.2308°
Eccentric anomaly
65.46052°
Mean motion
0.57333 °/min
Orbital period
627.91 mins
BSTAR
0.0035417
Loading maneuver chart data...
Computing Atmospheric mass density...
Loading historical data...
Loading historical data...
Loading historical data...
Loading historical data...
Loading historical data...
Loading historical data...
Loading historical data...

Documentation

Showing up to 5 results
|